Location: Unspecified
(0.0000°N, 0.0000°E)
Time: 00:26:48
(UTC+02:00)

Atlas Centaur 2 - Visible Passes

Search period start: 26 September 2017 00:00
Search period end: 06 October 2017 00:00
Orbit: 459 x 1313 km, 30.4° (Epoch: 25 September)

Date Brightness Start Highest point End Pass type
(mag) Time Alt. Az. Time Alt. Az. Time Alt. Az.
26 Sep 3.7 21:50:18 10° SW 21:56:16 38° SSE 21:56:16 38° SSE visible
27 Sep 3.3 21:46:44 10° SW 21:53:27 49° SSE 21:53:27 49° SSE visible
27 Sep 5.5 23:35:57 10° WSW 23:36:07 11° WSW 23:36:07 11° WSW visible
28 Sep 2.9 21:43:15 10° SW 21:50:30 63° SSE 21:50:41 62° SE visible
28 Sep 5.4 23:32:54 10° W 23:33:21 12° W 23:33:21 12° W visible
29 Sep 2.7 21:39:52 10° SW 21:47:03 78° SSE 21:47:58 70° E visible
29 Sep 5.4 23:30:01 10° W 23:30:38 12° W 23:30:38 12° W visible
30 Sep 2.8 21:36:36 10° WSW 21:43:37 84° NNW 21:45:17 60° NE visible
30 Sep 5.4 23:27:18 10° W 23:27:56 12° W 23:27:56 12° W visible
01 Oct 4.6 06:58:09 10° N 07:00:46 13° NNE 07:03:09 10° NE visible
01 Oct 3.0 21:33:26 10° WSW 21:40:15 66° NNW 21:42:37 46° NNE visible
01 Oct 5.4 23:24:46 10° WNW 23:25:16 12° WNW 23:25:16 12° WNW visible
02 Oct 4.3 06:53:34 10° NNW 06:57:44 18° NNE 07:01:21 10° ENE visible
02 Oct 3.3 21:30:24 10° WSW 21:36:54 51° NNW 21:39:56 34° NNE visible
02 Oct 5.4 23:22:30 10° WNW 23:22:36 10° WNW 23:22:36 10° WNW visible
03 Oct 4.0 06:49:23 10° NNW 06:54:39 24° NNE 06:59:02 10° E visible
03 Oct 3.7 21:27:30 10° W 21:33:36 39° NNW 21:37:13 25° NNE visible
04 Oct 5.0 05:02:02 11° NNE 05:02:02 11° NNE 05:02:56 10° NE visible
04 Oct 3.6 06:45:25 10° NW 06:51:30 33° NNE 06:56:26 10° E visible
04 Oct 4.0 21:24:46 10° W 21:30:23 30° NNW 21:34:28 19° NNE visible
05 Oct 4.9 04:59:19 14° NNE 04:59:19 14° NNE 05:01:40 10° NE visible
05 Oct 3.2 06:41:59 12° NW 06:48:18 45° NNE 06:53:39 10° ESE visible
05 Oct 4.3 21:22:14 10° WNW 21:27:13 23° NNW 21:31:40 14° NNE visible
